Simultaneous Nadir Overpasses (SNOs) Predictions

Prediction of SNOs between GOES-16 and METOP-B Satellite Orbit:

Table of predicted SNOs for the next 14.0 days since TLE Epoch: 2/14/2020
Index Date Time (GOES-16) GOES-16 Lat,Lon METOP-B Lat,Lon Distance(km) Time Diff (sec)
1 02/15/2020 14:42:07 -0.01, -75.22 0.66, -78.15 334.91 80
2 02/16/2020 14:24:09 -0.01, -75.22 -0.48, -73.16 234.61 80
3 02/18/2020 02:40:29 0.02, -75.21 -0.58, -77.75 290.60 80
4 02/19/2020 02:22:31 0.01, -75.22 0.56, -72.77 279.27 80
5 02/20/2020 14:38:43 -0.02, -75.25 0.46, -77.33 237.30 80
6 02/21/2020 14:20:44 -0.01, -75.26 -0.69, -72.34 333.05 80
7 02/23/2020 02:37:05 0.02, -75.26 -0.37, -76.93 190.71 80
8 02/24/2020 02:19:06 0.01, -75.27 0.78, -71.94 380.17 80
9 02/25/2020 14:35:19 -0.02, -75.32 0.25, -76.50 134.94 80
10 02/26/2020 14:17:20 -0.01, -75.34 -0.90, -71.52 436.34 80
11 02/28/2020 02:33:40 0.02, -75.35 -0.15, -76.11 86.12 80




NCC Satellite Simultaneous Nadir Overpasses (SNOs) Prediction Service
